[Iaude] MPEC N94: 2024 NA2 [a=1.06,e=0.09,i=6.6,H=25.1]
    mpec at cfa.harvard.edu 
    mpec at cfa.harvard.edu
       
    Mon Jul  8 07:27:17 EDT 2024
    
    
  
M.P.E.C. 2024-N94                                  Issued 2024 July 8, 11:25 UT
     The Minor Planet Electronic Circulars contain information on unusual
         minor planets, routine data on comets and natural satellites,
         and occasional editorial announcements.  They are published
    on behalf of Division F of the International Astronomical Union by the
          Minor Planet Center, Smithsonian Astrophysical Observatory,
                          Cambridge, MA 02138, U.S.A.
			  
             Prepared using the Tamkin Foundation Computer Network
                              MPC at CFA.HARVARD.EDU
            URL https://www.minorplanetcenter.net/    ISSN 1523-6714
                                    2024 NA2                                    
Observations:
     K24N02A* C2024 07 07.07783514 45 15.533-21 40 49.26         17.76oVEN094W68
     K24N02A  C2024 07 07.08104014 45 13.800-21 39 21.71         19.18oVEN094W68
     K24N02A  C2024 07 07.08665414 45 10.927-21 36 53.24         19.06oVEN094W68
     K24N02A  C2024 07 07.09686114 45 05.436-21 32 13.74         18.98oVEN094W68
     K24N02A KB2024 07 07.46805914 43 09.282-18 53 26.54         18.4 VZEN094Q06
     K24N02A KB2024 07 07.47730614 43 04.391-18 49 08.68         18.0 VZEN094Q06
     K24N02A KB2024 07 07.48641414 42 59.500-18 44 54.25         19.5 VZEN094Q06
     K24N02A KC2024 07 07.51131514 42 46.63 -18 33 13.1          18.0 GVEN094900
     K24N02A KC2024 07 07.52358214 42 40.28 -18 27 26.1          18.5 GVEN094900
     K24N02A KC2024 07 07.53584814 42 34.04 -18 21 38.3                VEN094900
     K24N02A KB2024 07 07.80579 14 41 10.08 -16 15 37.9          18.5 VZEN094M45
     K24N02A KB2024 07 07.80844 14 41 08.76 -16 14 21.8          18.0 VZEN094M45
     K24N02A KB2024 07 07.81098 14 41 07.49 -16 13 08.4          17.9 VZEN094M45
     K24N02A KB2024 07 07.87558314 40 46.72 -15 42 04.2          18.9 GXEN094958
     K24N02A KB2024 07 07.88033914 40 44.27 -15 39 46.3          18.6 GXEN094958
     K24N02A KB2024 07 07.88508614 40 41.88 -15 37 27.6          17.7 GXEN094958
     K24N02A KB2024 07 07.89573714 40 36.43 -15 32 20.1          17.5 GXEN094I93
     K24N02A KB2024 07 07.89867414 40 34.95 -15 30 55.0          17.7 GXEN094I93
     K24N02A KB2024 07 07.90159814 40 33.53 -15 29 29.6                XEN094I93
     K24N02A KB2024 07 07.90452414 40 32.11 -15 28 03.2          17.9 GXEN094I93
     K24N02A KB2024 07 07.98215914 40 10.109-14 41 53.72         18.1 VZEN094Y05
     K24N02A KB2024 07 07.98937414 40 06.109-14 38 21.24         19.0 VZEN094Y05
     K24N02A KB2024 07 07.99647914 40 02.148-14 34 51.89         18.7 VZEN094Y05
     K24N02A KC2024 07 08.05310 14 39 45.54 -14 06 46.0          18.2 GVEN094W94
     K24N02A KC2024 07 08.05925 14 39 42.15 -14 03 44.3          17.7 GVEN094W94
     K24N02A KC2024 07 08.06539 14 39 38.82 -14 00 43.3          18.4 GVEN094W94
     K24N02A KC2024 07 08.10251314 39 31.38 -13 51 33.4          18.4 GVEN094H21
     K24N02A KC2024 07 08.10414014 39 30.54 -13 50 45.3          18.6 GVEN094H21
     K24N02A KC2024 07 08.10576514 39 29.68 -13 49 57.1          18.6 GVEN094H21
     K24N02A KC2024 07 08.10739014 39 28.85 -13 49 09.0          18.2 GVEN094H21
     K24N02A  C2024 07 08.16649 14 39 06.68 -13 19 42.2          17.6 VtEN094V27
     K24N02A  C2024 07 08.16753 14 39 06.28 -13 19 11.5          17.4 VtEN094V27
     K24N02A  C2024 07 08.16789 14 39 06.06 -13 18 59.2          17.2 VtEN094V27
     K24N02A KC2024 07 08.36960414 38 03.708-11 26 48.80         18.4 GVEN094474
     K24N02A KC2024 07 08.37114514 38 02.911-11 26 02.36         18.5 GVEN094474
     K24N02A KC2024 07 08.37191314 38 02.518-11 25 39.18         18.5 GVEN094474
     K24N02A KC2024 07 08.37345314 38 01.738-11 24 52.60         18.5 GVEN094474
Observer details:
474 Mount John Observatory, Lake Tekapo.  Observers A. C. Gilmore, P. M.
    Kilmartin.  Measurer P. M. Kilmartin.  0.6-m f/6.3 Reflector + CCD.
900 Moriyama.  Observer Y. Ikari.  0.26-m f/7.0 reflector + CMO.
958 Observatoire de Dax.  Observer P. Dupouy.  0.50-m f/4.5 Reflector + CMO.
H21 Astronomical Research Observatory, Westfield.  Observer R. Holmes.
    Measurers T. Linder, R. Holmes, L. Horn.  0.81-m f/4.0 astrograph + CCD.
I93 St Pardon de Conques.  Observer F. Losse.  0.40-m f/3.7 reflector + CMO.
M45 Starhopper Observatory, Sfantu Gheorghe.  Observer F. Ursache.  0.41-m
    f/7.5 reflector + CMO.
Q06 Tarui Observatory, Tarui.  Observer H. Watanabe.  0.35-m f/1.9 Schmidt-
    Cassegrain + CMO.
V27 North Mesa Observatory, Los Alamos.  Observer B. K. Kendrick.  0.25-m f/6
    reflector + CCD.
W68 ATLAS Chile, Rio Hurtado.  Observers L. Denneau, R. Siverd, J. Tonry, H.
    Weiland.  Measurers L. Denneau, N. Erasmus, A. Fitzsimmons, J. Robinson,
    R. Siverd, J. Tonry, H. Weiland.  0.5-m Reflector + CCD.
W94 MAP, San Pedro de Atacama.  Observers A. Maury, G. Attard.  Measurers A.
    Maury, G. Attard, D. Parrott, F. Signoret, J.-M. Mari.  0.36-m f/1.9
    Schmidt astrograph + CCD.
Y05 SONEAR Wykrota-CEAMIG, Serra da Piedade.  Observers C. Jacques, A.
    Caetano, E. Pimentel.  Measurer C. Jacques.  0.45-m f/2.9 reflector + CMO.
Orbital elements:
2024 NA2                                                 Earth MOID = 0.0059 AU
Epoch 2024 Mar. 31.0 TT = JDT 2460400.5                 Veres                   
M 204.33982              (2000.0)            P               Q                  
n   0.90849864     Peri.   75.67581     +0.99369393     -0.01606117             
a   1.0558118      Node   285.15373     -0.03256777     +0.90567807             
e   0.0908737      Incl.    6.60178     +0.10729267     +0.42366175             
P   1.08           H   25.19          G   0.15           U   6                  
Residuals in seconds of arc
240707 W68  0.0   0.5-    240707 958  0.5+  0.4-    240708 H21  0.1-  0.2+
240707 W68  0.3-  0.6+    240707 958  0.3-  0.8-    240708 H21  0.1+  0.1+
240707 W68 (1.4+  2.6-)   240707 958  0.3-  0.3-    240708 H21  0.1-  0.2+
240707 W68  0.0   0.4+    240707 I93  0.1+  0.2+    240708 H21  0.1+  0.1+
240707 Q06  0.2-  0.3+    240707 I93  0.4-  0.5-    240708 V27  1.2-  0.9-
240707 Q06  0.5+  0.3+    240707 I93  0.1-  0.5-    240708 V27  1.0+  1.2-
240707 Q06  0.1-  0.1-    240707 I93  0.0   0.3+    240708 V27  0.5+  0.4+
240707 900  0.1+  0.4-    240707 Y05  0.6-  0.4+    240708 474  0.0   0.1+
240707 900  0.0   0.0     240707 Y05  0.1-  0.5+    240708 474  0.1-  0.0
240707 900  0.2+  0.1+    240707 Y05  0.3-  0.4+    240708 474  0.1-  0.0
240707 M45  0.2+  0.8+    240708 W94 (0.4-  1.4+)   240708 474  0.0   0.0
240707 M45  0.1+  0.3+    240708 W94 (0.2-  1.0+)
240707 M45  0.0   0.3+    240708 W94  0.5+  0.1-
Ephemeris:
2024 NA2                 a,e,i = 1.06, 0.09, 7                   q = 0.9599
Date    TT    R. A. (2000) Decl.     Delta      r    Elong.  Phase     V
2024 06 08    17 16 03.4 -70 10 49   0.07792 1.0693   132.6    44.3    21.5
...
2024 06 23    16 06 46.0 -64 57 06   0.04279 1.0466   134.1    44.2    20.1
...
2024 07 01    15 20 33.6 -51 23 56   0.02586 1.0343   132.5    46.4    19.1
...
2024 07 07    14 45 54.2 -22 16 54   0.01656 1.0252   120.6    58.6    18.4
2024 07 08    14 40 14.3 -14 34 31   0.01572 1.0237   116.2    63.0    18.5
2024 07 09    14 34 35.5 -06 10 31   0.01520 1.0222   111.1    68.1    18.5
...
2024 07 15    14 00 12.1 +40 08 28   0.01899 1.0134    80.4    98.6    20.2
...
2024 07 23    13 07 05.7 +65 29 56   0.03356 1.0023    65.3   113.0    22.2
...
2024 08 07    11 00 28.5 +75 50 57   0.06571 0.9842    61.2   115.4    23.8
M. P. C. Staff               (C) Copyright 2024 MPC           M.P.E.C. 2024-N94
    
    
More information about the Iaude
mailing list